GSAT-10

Last updated on Mon Sep 07 2026 00:02:58 GMT+0000 (Coordinated Universal Time)

1 38779U 12051B 26249.66362208 -.00000181 00000+0 00000+0 0 9998 2 38779 0.0685 271.3787 0005440 200.7878 195.4807 1.00269944 50919
UTC large
Height (km)
Speed (km/s)
/
Latitude / Longitude
Inclination (degrees)
Orbital Period (minutes)
Azimuth
Elevation
Range (km)
Doppler Factor

Next 0 passes for location: London (51.5072 / 0.1276)

No passes found over London.
GSAT-10